Welcome to Hicks Airfield

Driving Safety »



  • Current KAFW METAR
    (5.8nm NE) VFR
    KAFW 131353Z 20011KT 10SM FEW035 31/22 A2994 RMK AO2 SLP120 T03060217
  • Flappings Newsletter
    The official newsletter of HAPA.
    Read »
  • Property Owner's Portal
    Create an account on our new secure portal for access to secure documents.
    Log-in »
  • Air Traffic
    Hear Hicks air traffic from anywhere.
    Listen »